AirNav   Pilot Hours Calculator
 
 718 users online  

1TN0 Cedar Crest Field Airport
Lebanon, Tennessee, USA

GOING TO LEBANON?


FAA INFORMATION EFFECTIVE 27 FEBRUARY 2020

Location

FAA Identifier: 1TN0
Lat/Long: 36-14-48.0700N 086-18-12.0000W
36-14.801167N 086-18.200000W
36.2466861,-86.3033333
(estimated)
Elevation: 540 ft. / 165 m (estimated)
Variation: 01W (1980)
From city: 2 miles N of LEBANON, TN
Time zone: UTC -6 (UTC -5 during Daylight Saving Time)
Zip code: 37087

Airport Operations

Airport use: Private use. Permission required prior to landing
Activation date: 11/1986
Control tower: no
ARTCC: MEMPHIS CENTER
FSS: NASHVILLE FLIGHT SERVICE STATION
Attendance: UNATNDD
Wind indicator: yes
Segmented circle: no

Airport Communications

WX AWOS-3 at M54 (3 nm S): 118.325 (615-444-5778)
WX AWOS-3 at XNX (9 nm NW): 132.725 (615-230-8005)
WX AWOS-3PT at MQY (18 nm SW): 119.125 (615-223-7716)
WX ASOS at BNA (20 nm W): PHONE 615-360-6133

Nearby radio navigation aids

VOR radial/distance  VOR name  Freq  Var
BNAr072/19.6NASHVILLE VORTAC114.1002W

 
NDB name  Hdg/Dist  Freq  Var  ID
WALTER HILL013/17.437102WFQW ..-. --.- .--
HUCHN297/38.123303WHEM .... . --

Airport Services

Runway Information

Runway 1/19

Dimensions: 2600 x 50 ft. / 792 x 15 m
Surface: concrete, in good condition
RUNWAY 1  RUNWAY 19
Latitude: 36-14.588833N36-15.014667N
Longitude: 086-18.228333W086-18.172000W
Traffic pattern: leftleft
Obstructions: 50 ft. trees, 400 ft. from runway50 ft. trees, 600 ft. from runway

Airport Ownership and Management from official FAA records

Ownership: Privately-owned
Owner: KEVIN HERONIMUS
511 WALKER LN
LEBANON, TN 37087
Phone (256) 529-3529
Manager: KEVIN HERONIMUS
511 WALKER LN
LEBANON, TN 37087
Phone (256) 529-3529

Airport Operational Statistics

Aircraft based on the field: 1
Single engine airplanes: 1
    

Additional Remarks

FOR CD CTC NASHVILLE APCH AT 615-695-4522.

Instrument Procedures

There are no published instrument procedures at 1TN0.

Some nearby airports with instrument procedures:

M54 - Lebanon Municipal Airport (3 nm S)
KXNX - Sumner County Regional Airport (9 nm NW)
KMQY - Smyrna Airport (18 nm SW)
KBNA - Nashville International Airport (20 nm W)
3M7 - Lafayette Municipal Airport (20 nm NE)
 
Loc | Ops | Rwys | IFR | FBO | Links
Com | Nav | Svcs | Stats | Notes
Area around 1TN0 (Cedar Crest Field Airport)
 
Road maps at: MapQuest Bing Google
 
Aerial photo
No photo
 
Sectional chart

 
Airport distance calculator
Flying to Cedar Crest Field Airport? Find the distance to fly.

From to 1TN0

Sunrise and sunset
Times for 28-Feb-2020
 Local
(UTC-6)
 Zulu
(UTC)
Morning civil twilight05:5211:52
Sunrise06:1812:18
Sunset17:3823:38
Evening civil twilight18:0400:04

Current date and time
Zulu (UTC)  28-Feb-2020 10:04:21
Local (UTC-6)  28-Feb-2020 04:04:21
 
METAR
KM54 
3nm S 
280955Z AUTO 22009KT 10SM FEW055 OVC075 03/M03 A3007 RMK A01
KXNX 
9nm NW 
272240Z AUTO 27004KT 10SM CLR 07/M07 A3019 RMK A01
KMQY 
17nm SW 
280956Z AUTO 24008KT 10SM BKN070 OVC085 04/M04 A3011 RMK AO2 SLP205 T00441039
KBNA 
20nm SW 
280953Z 24007KT 10SM OVC065 05/M05 A3009 RMK AO2 SLP191 T00501050
TAF
KMQY 
17nm SW 
280520Z 2806/2906 22004KT P6SM BKN080 OVC100 FM281200 27006KT P6SM VCSH BKN020 OVC050 FM281500 28008G16KT P6SM BKN060 FM290200 30009G17KT P6SM VCSH OVC040
KBNA 
20nm SW 
280520Z 2806/2906 24005KT P6SM OVC080 FM281200 27006KT P6SM VCSH BKN020 OVC050 FM281500 28008G16KT P6SM BKN060 FM290200 30009G17KT P6SM VCSH OVC040
NOTAMs
Click for the latest NOTAMs
NOTAMs are issued by the DoD/FAA and will open in a separate window not controlled by AirNav.

 

 
 

Would you like to see your business listed on this page?

 If your business provides an interesting product or service to pilots, flight crews, aircraft, or users of the Cedar Crest Field Airport, you should consider listing it here.  To start the listing process, click on the button below
 
Add a business
 

Other Pages about Cedar Crest Field Airport

Update a link
 
Copyright © AirNav, LLC. All rights reserved. Privacy Policy  Contact